Home   Weather   Barrie   Past weeks

Flag for Canada Past Weather in Barrie, Ontario, Canada — Yesterday and Last 2 Weeks

Now
32 °F

Clear.


Feels Like: 26 °F
Forecast: 29 / 42 °F
Wind: 7 mph from East

Location: Borden

Current Time: Feb 20, 2017 at 8:01:28 pm

Latest Report: Feb 20, 2017 at 7:00 pm


Visibility: 9 mi

Pressure: 30.35 "Hg

Humidity: 64%

Dew Point: 21 °F

Location of BarrieLocation

Past Weather in Barrie — Graph

°F

Barrie Temperature Yesterday

Maximum temperature yesterday: 48 °F (at 11:00 am)
Minimum temperature yesterday: 27 °F (at 10:00 pm)
Average temperature yesterday: 38 °F

High & Low Weather Summary for the Past Weeks

 TemperatureHumidityPressure
High52 °F (Feb 18, 11:00 am)100% (Feb 7, 10:08 pm)30.41 "Hg (Feb 7, 10:08 pm)
Low3 °F (Feb 9, 7:00 am)30% (Feb 20, 3:00 pm)29.16 "Hg (Feb 7, 10:08 pm)
Average26 °F81%29.83 "Hg
* Reported Feb 5 6:00 pm — Feb 20 6:00 pm, Barrie, Weather by CustomWeather, © 2017

Note: Actual official high and low records may vary slightly from our data, if they occured in-between our weather recording intervals... More about our weather records

Advertising

Barrie Weather History for the Previous 24 Hours

Scroll right to see more
 ConditionsComfort  
Time TempWeatherWind HumidityBarometerVisibility
6:00 pm
Mon, Feb 20
32 °FClear.6 mph64%30.35 "Hg9 mi
5:00 pm36 °FSunny.8 mph56%30.34 "Hg9 mi
4:00 pm39 °FSunny.3 mph36%30.36 "Hg9 mi
3:00 pm39 °FPassing clouds.3 mph30%30.36 "Hg9 mi
2:00 pm37 °FSunny.6 mph45%30.36 "Hg9 mi
1:00 pm37 °FSunny.5 mph48%30.36 "Hg9 mi
12:00 pm37 °FSunny.6 mph52%30.38 "Hg9 mi
11:00 am34 °FSunny.6 mph65%30.41 "Hg9 mi
10:00 am32 °FSunny.6 mph64%30.40 "Hg9 mi
9:00 am32 °FSunny.No wind80%30.39 "Hg9 mi
8:00 am25 °FSunny.2 mph93%30.38 "Hg9 mi
7:00 am21 °FClear.3 mph93%30.34 "Hg9 mi
6:00 am21 °FClear.No wind100%30.34 "Hg9 mi
5:00 am23 °FClear.No wind93%30.31 "Hg9 mi
4:00 am28 °FClear.2 mph93%30.27 "Hg9 mi
3:00 am30 °FClear.5 mph93%30.24 "Hg9 mi
2:00 am30 °FClear.5 mph86%30.23 "Hg9 mi
1:00 am25 °FClear.3 mph100%30.20 "Hg9 mi
12:00 am28 °FClear.5 mph93%30.19 "Hg9 mi
11:00 pm
Sun, Feb 19
27 °FClear.2 mph93%30.16 "Hg9 mi
10:00 pm27 °FClear.No wind93%30.15 "Hg9 mi
9:00 pm28 °FClear.No wind86%30.13 "Hg9 mi
8:00 pm30 °FClear.2 mph86%30.11 "Hg9 mi
Weather by CustomWeather, © 2017

See weather overviewHow to use our weather pages